World > North America > United States > Pennsylvania > Bella Vista  

Bella Vista, PA Hourly Weather Updates

Feedback E-mail the Weather

Quick Clicks

Bella Vista, PA Weather Maps

°F °C°F °C
Bella Vista Weather Map
UTC Time: 6/21/2024, 13:32
Your Time:

Bella Vista, PA Regional Weather

Expires:202406211400;;407490
ASUS41 KCTP 211310
RWRCTP

REGIONAL WEATHER ROUNDUP
NATIONAL WEATHER SERVICE STATE COLLEGE PA
900 AM EDT FRI JUN 21 2024

Note: "fair" indicates few or no clouds below 12,000 feet with no 
significant weather and/or obstructions to visibility.

* = STATION THAT DOES NOT REPORT PRECIPITATION /E.G. RAIN...SNOW...ETC/
    THUNDER OR FOG.


PAZ004>006-010>012-017>019-024>028-033>037-041-042-045-046-049>053-211400-
CENTRAL PENNSYLVANIA
  
CITY           SKY/WX    TMP DP  RH WIND       PRES   REMARKS
BRADFORD       SUNNY     78  70  76 SW5       30.30S                  
ST MARYS       MOSUNNY   77  68  73 CALM      30.32S                  
DUBOIS         SUNNY     79  70  74 W6        30.28S                  
CLEARFIELD     SUNNY     75  69  81 CALM      30.28S                  
JOHNSTOWN      MOSUNNY   76  67  73 SW6       30.32R                  
SOMERSET       MOSUNNY   73  66  78 SW5       30.33R                  
ALTOONA        MOSUNNY   80  66  62 CALM      30.27S                  
STATE COLLEGE  SUNNY     75  68  78 CALM      30.26F                  
REEDSVILLE     SUNNY     77  68  73 CALM      30.24S                  
WELLSBORO      SUNNY     70  70 100 CALM      30.28S                  
WILLIAMSPORT   SUNNY     79  69  71 VRB3      30.21F                  
SELINSGROVE    SUNNY     81  67  62 VRB3      30.23S                  
FT INDIANTOWN  MOSUNNY   81  67  62 S3        30.21S                  
CAPITAL CITY   SUNNY     82  65  56 W5        30.22S                  
HARRISBURG     MOSUNNY   80  67  64 CALM      30.21S                  
YORK           SUNNY     79  68  69 CALM      30.23S                  
$$


SKY/WX - Weather  TMP - Temperature  DP - Dew Point  RH - Humidity
WIND - Wind Direction/Speed PRES - Barometric Pressure VSB - Visibility
WCI - Wind Chill Index E13G22 Wind - East Wind 13 mph/Gusts of 22 mph

Trending Headlines

Trending Entertainment Headlines

Bella Vista Radar Loop

Use the map search tool if you want to place a location marker on the radar map...

Bella Vista Quick Facts

National Two Day Weather Forecast


E-mail the Bella Vista Weather Forecast

Voice your opinion or tell us about page issues...